GW6368 Weather Reports


time (UTC)temp
C
wind
direction
speed
KPH
gust
KPH
rain 1hr
cm
rain 24hr
cm
rain mn
cm
humidity
%
barometer
mb
20260504050004 16 0 0.0 0.0 0.00 0.00 0.00 71 1017.9
20260504043003 16 0 0.0 0.0 0.00 0.00 0.00 66 1018.1
20260504040003 17 0 0.0 0.0 0.00 0.00 0.00 62 1018.0
20260504033003 18 0 0.0 0.0 0.00 0.00 0.00 60 1018.2
20260504030218 19 0 0.0 0.0 0.00 0.00 0.00 59 1017.9
20260504023003 20 0 0.0 0.0 0.00 0.00 0.00 57 1017.9
20260504020218 21 0 0.0 0.0 0.00 0.00 0.00 55 1017.8
20260504013003 21 142 0.0 3.2 0.00 0.00 0.00 52 1017.8
20260504010217 22 131 0.0 6.4 0.00 0.00 0.00 49 1017.6
20260504003217 23 136 0.0 8.0 0.00 0.00 0.00 46 1017.6
20260504000003 23 133 1.6 11.3 0.00 0.00 0.00 43 1017.7
20260503233217 25 124 0.0 14.5 0.00 0.00 0.00 41 1017.9
20260503230217 26 0 0.0 0.0 0.00 0.00 0.00 39 1018.0
20260503223003 26 138 1.6 12.9 0.00 0.00 0.00 38 1018.4
20260503220003 26 131 1.6 8.0 0.00 0.00 0.00 35 1018.3
20260503213003 27 0 0.0 0.0 0.00 0.00 0.00 34 1018.7
20260503210003 27 0 0.0 0.0 0.00 0.00 0.00 34 1019.1
20260503203003 27 125 0.0 3.2 0.00 0.00 0.00 33 1019.6
20260503200218 27 126 0.0 1.6 0.00 0.00 0.00 34 1020.1
20260503193217 27 143 0.0 6.4 0.00 0.00 0.00 33 1020.5
20260503190003 27 163 0.0 4.8 0.00 0.00 0.00 31 1021.0
20260503183003 27 0 0.0 0.0 0.00 0.00 0.00 30 1021.4
20260503180003 27 0 0.0 0.0 0.00 0.00 0.00 34 1021.7
20260503173003 26 0 0.0 0.0 0.00 0.00 0.00 33 1022.2